Time,TemperatureF,DewpointF,PressureIn,WindDirection,WindDirectionDegrees,WindSpeedMPH,WindSpeedGustMPH,Humidity,HourlyPrecipIn,Conditions,Clouds,dailyrainin,SolarRadiationWatts/m^2,SoftwareType,DateUTC
2015-05-04 00:02:00,66.5,49.8,30.01,SSW,200,0.0,2.0,55,0.00,,,0.00,0,Wunderground v.1.15,2015-05-04 04:02:00,
2015-05-04 00:08:00,66.2,50.0,30.01,SSW,200,0.0,0.0,56,0.00,,,0.00,0,Wunderground v.1.15,2015-05-04 04:08:00,
2015-05-04 00:14:00,66.0,50.3,30.01,SSW,200,0.0,0.0,57,0.00,,,0.00,0,Wunderground v.1.15,2015-05-04 04:14:00,
2015-05-04 00:20:00,65.6,50.0,30.01,SSW,200,0.0,0.0,57,0.00,,,0.00,0,Wunderground v.1.15,2015-05-04 04:20:00,
2015-05-04 00:26:00,65.5,49.9,30.02,SSW,200,0.0,10.0,57,0.00,,,0.00,0,Wunderground v.1.15,2015-05-04 04:26:00,
2015-05-04 00:32:00,65.5,50.3,30.02,South,182,0.0,10.0,58,0.00,,,0.00,0,Wunderground v.1.15,2015-05-04 04:32:00,
2015-05-04 00:38:00,65.7,50.5,30.02,South,182,0.0,10.0,58,0.00,,,0.00,0,Wunderground v.1.15,2015-05-04 04:38:00,
2015-05-04 00:44:00,65.7,50.0,30.02,South,182,0.0,10.0,57,0.00,,,0.00,0,Wunderground v.1.15,2015-05-04 04:44:00,
2015-05-04 00:50:00,65.8,50.1,30.02,South,190,1.0,10.0,57,0.00,,,0.00,0,Wunderground v.1.15,2015-05-04 04:50:00,
2015-05-04 00:56:00,65.8,50.1,30.02,South,190,0.0,0.0,57,0.00,,,0.00,0,Wunderground v.1.15,2015-05-04 04:56:00,
2015-05-04 01:02:00,65.7,50.0,30.02,South,190,0.0,0.0,57,0.00,,,0.00,0,Wunderground v.1.15,2015-05-04 05:02:00,
2015-05-04 01:08:00,65.8,50.1,30.03,SSW,203,1.0,4.0,57,0.00,,,0.00,0,Wunderground v.1.15,2015-05-04 05:08:00,
2015-05-04 01:14:00,65.6,50.4,30.03,SSW,203,1.0,1.0,58,0.00,,,0.00,0,Wunderground v.1.15,2015-05-04 05:14:00,
2015-05-04 01:20:00,65.5,50.3,30.03,SSW,209,0.0,1.0,58,0.00,,,0.00,0,Wunderground v.1.15,2015-05-04 05:20:00,
2015-05-04 01:26:00,65.3,50.1,30.03,SSW,209,0.0,4.0,58,0.00,,,0.00,0,Wunderground v.1.15,2015-05-04 05:26:00,
2015-05-04 01:32:00,65.4,51.1,30.02,SSW,211,1.0,4.0,60,0.00,,,0.00,0,Wunderground v.1.15,2015-05-04 05:32:00,
2015-05-04 01:38:00,65.2,50.5,30.02,SSW,211,0.0,4.0,59,0.00,,,0.00,0,Wunderground v.1.15,2015-05-04 05:38:00,
2015-05-04 01:44:00,65.2,50.5,30.02,South,175,1.0,1.0,59,0.00,,,0.00,0,Wunderground v.1.15,2015-05-04 05:44:00,
2015-05-04 01:50:00,65.5,50.8,30.02,South,175,2.0,4.0,59,0.00,,,0.00,0,Wunderground v.1.15,2015-05-04 05:50:00,
2015-05-04 01:56:00,65.5,50.8,30.02,South,175,2.0,2.0,59,0.00,,,0.00,0,Wunderground v.1.15,2015-05-04 05:56:00,
2015-05-04 02:02:00,65.7,51.0,30.02,South,174,3.0,5.0,59,0.00,,,0.00,0,Wunderground v.1.15,2015-05-04 06:02:00,